Mount Pleasant, SC

8:24 AM EST on November 22, 2017 (GMT -0500)
Mount Pleasant

Weather History for KLRO - December, 2012

Change the Weather History Date:

Wednesday, December 12, 2012

  Actual Average (KCHS) Record (KCHS)
Temperature  
Mean Temperature 53 °F -  
Max Temperature 60 °F 62 °F 79 °F (1971)
Min Temperature 46 °F 42 °F 14 °F (1962)
Degree Days  
Heating Degree Days 12    
Growing Degree Days 3 (Base 50)    
Moisture  
Dew Point 53 °F    
Average Humidity 95    
Maximum Humidity 100    
Minimum Humidity 88    
Precipitation  
Precipitation 0.70 in - - ()
Sea Level Pressure  
Sea Level Pressure 30.14 in    
Wind  
Wind Speed 4 mph (North)    
Max Wind Speed 10 mph    
Max Gust Speed 21 mph    
Visibility 6 miles    
Events Rain    
Averages and records for this station are not official NWS values.
T = Trace of Precipitation, MM = Missing Value Source: NWS Daily Summary

Daily Weather History Graph

Daily Weather History Graph

Search for Another Location

Airport or City:

Trip Planner

Search our weather history database for the weather conditions in past years. The results will help you decide how hot, cold, wet, or windy it might be!

Date:

Astronomy

Dec. 12, 2012 Rise Set
Actual Time 7:12 AM EST 5:13 PM EST
Civil Twilight 6:45 AM EST 5:40 PM EST
Nautical Twilight 6:14 AM EST 6:11 PM EST
Astronomical Twilight 5:44 AM EST 6:41 PM EST
Moon 6:16 AM EST (12/12) 4:47 PM EST (12/12)
Length of Visible Light 10h 55m
Length of Day
10h 00m
Waning Crescent, 1% of the Moon is Illuminated
Dec 12
Waning Crescent
Dec 13
New
Dec 20
First Quarter
Dec 28
Full
Jan 4
Last Quarter

Hourly Weather History & Observations

Time (EST) Temp. Windchill Dew Point Humidity Pressure Visibility Wind Dir Wind Speed Gust Speed Precip Events Conditions
12:15 AM 60.8 °F - 59.0 °F 94% 30.07 in 6.0 mi Calm Calm - N/A   Overcast
12:35 AM 60.8 °F - 59.0 °F 94% 30.07 in 7.0 mi Calm Calm - N/A   Overcast
12:55 AM 60.8 °F - 59.0 °F 94% 30.06 in 7.0 mi Calm Calm - N/A   Overcast
1:15 AM 60.8 °F - 59.0 °F 94% 30.06 in 7.0 mi NNW 3.5 mph - N/A   Overcast
1:35 AM 60.8 °F - 59.0 °F 94% 30.08 in 6.0 mi NW 6.9 mph - N/A   Overcast
1:55 AM 60.8 °F - 59.0 °F 94% 30.09 in 6.0 mi NW 6.9 mph - N/A   Overcast
2:15 AM 60.8 °F - 57.2 °F 88% 30.08 in 8.0 mi North 3.5 mph - N/A   Overcast
2:35 AM 60.8 °F - 57.2 °F 88% 30.08 in 8.0 mi NNW 6.9 mph - N/A   Overcast
2:55 AM 60.8 °F - 57.2 °F 88% 30.08 in 8.0 mi North 3.5 mph - N/A   Overcast
3:15 AM 60.8 °F - 57.2 °F 88% 30.08 in 7.0 mi NNW 5.8 mph - N/A   Overcast
3:35 AM 60.8 °F - 57.2 °F 88% 30.08 in 7.0 mi North 4.6 mph - N/A   Overcast
3:55 AM 60.8 °F - 57.2 °F 88% 30.09 in 7.0 mi NNW 4.6 mph - N/A   Overcast
4:15 AM 60.8 °F - 57.2 °F 88% 30.09 in 7.0 mi North 3.5 mph - N/A   Overcast
4:35 AM 60.8 °F - 57.2 °F 88% 30.09 in 7.0 mi NNW 5.8 mph - N/A   Overcast
4:55 AM 60.8 °F - 57.2 °F 88% 30.09 in 7.0 mi North 4.6 mph - N/A   Overcast
5:15 AM 60.8 °F - 57.2 °F 88% 30.08 in 7.0 mi Calm Calm - N/A   Overcast
5:35 AM 60.8 °F - 57.2 °F 88% 30.09 in 6.0 mi Calm Calm - N/A   Overcast
5:55 AM 60.8 °F - 57.2 °F 88% 30.10 in 6.0 mi Calm Calm - N/A   Overcast
6:15 AM 60.8 °F - 57.2 °F 88% 30.09 in 7.0 mi NNE 3.5 mph - N/A   Overcast
6:35 AM 59.0 °F - 57.2 °F 94% 30.11 in 5.0 mi NNW 4.6 mph - N/A   Overcast
6:55 AM 59.0 °F - 57.2 °F 94% 30.11 in 6.0 mi NNW 6.9 mph - N/A   Overcast
7:15 AM 57.2 °F - 55.4 °F 94% 30.11 in 8.0 mi North 5.8 mph - N/A   Overcast
7:35 AM 57.2 °F - 55.4 °F 94% 30.11 in 8.0 mi NNE 4.6 mph - N/A   Overcast
7:55 AM 57.2 °F - 53.6 °F 88% 30.13 in 9.0 mi NNE 4.6 mph - N/A   Overcast
8:15 AM 57.2 °F - 53.6 °F 88% 30.14 in 4.0 mi North 4.6 mph - 0.01 in Rain Rain
8:35 AM 55.4 °F - 55.4 °F 100% 30.14 in 3.0 mi North 4.6 mph - 0.03 in Rain Light Rain
8:55 AM 55.4 °F - 53.6 °F 94% 30.16 in 3.0 mi North 4.6 mph - 0.03 in Rain Light Rain
9:15 AM 55.4 °F - 53.6 °F 94% 30.15 in 2.0 mi North 5.8 mph - 0.01 in Rain Light Rain
9:35 AM 55.4 °F - 55.4 °F 100% 30.15 in 3.0 mi North 4.6 mph - 0.02 in   Light Drizzle
9:55 AM 55.4 °F - 55.4 °F 100% 30.17 in 5.0 mi North 5.8 mph - 0.02 in   Overcast
10:15 AM 55.4 °F - 55.4 °F 100% 30.16 in 5.0 mi NNE 6.9 mph - N/A Rain Light Rain
10:35 AM 55.4 °F - 55.4 °F 100% 30.14 in 5.0 mi NE 5.8 mph - N/A Rain Light Rain
10:55 AM 55.4 °F - 55.4 °F 100% 30.15 in 3.0 mi North 5.8 mph - N/A Rain Light Rain
11:15 AM 55.4 °F - 55.4 °F 100% 30.16 in 2.5 mi North 5.8 mph - 0.01 in   Light Drizzle
11:35 AM 55.4 °F - 55.4 °F 100% 30.16 in 5.0 mi North 4.6 mph - 0.01 in Rain Light Rain
11:55 AM 55.4 °F - 53.6 °F 94% 30.15 in 5.0 mi NNE 5.8 mph - 0.02 in Rain Light Rain
12:15 PM 55.4 °F - 53.6 °F 94% 30.14 in 1.8 mi North 5.8 mph - 0.03 in Rain Rain
12:35 PM 53.6 °F - 53.6 °F 100% 30.13 in 5.0 mi North 4.6 mph - 0.05 in   Light Drizzle
12:55 PM 53.6 °F - 53.6 °F 100% 30.13 in 5.0 mi NNE 5.8 mph - 0.05 in Rain Light Rain
1:15 PM 53.6 °F - 53.6 °F 100% 30.12 in 2.5 mi NNE 5.8 mph - 0.01 in Rain Light Rain
1:35 PM 53.6 °F - 53.6 °F 100% 30.12 in 4.0 mi NNE 5.8 mph - 0.02 in Rain Light Rain
1:55 PM 53.6 °F - 53.6 °F 100% 30.13 in 3.0 mi North 6.9 mph - 0.03 in Rain Light Rain
2:15 PM 53.6 °F - 51.8 °F 94% 30.13 in 1.5 mi North 8.1 mph - 0.05 in Rain Rain
2:55 PM 51.8 °F - 51.8 °F 100% 30.14 in 3.0 mi North 9.2 mph 16.1 mph 0.10 in Rain Light Rain
3:15 PM 51.8 °F - 50.0 °F 94% 30.16 in 3.0 mi North 6.9 mph - N/A Rain Light Rain
3:35 PM 50.0 °F - 50.0 °F 100% 30.16 in 2.0 mi NNE 6.9 mph 16.1 mph 0.02 in Rain Light Rain
3:55 PM 50.0 °F - 48.2 °F 94% 30.15 in 1.0 mi NNE 8.1 mph - 0.10 in Rain Heavy Rain
4:15 PM 50.0 °F - 48.2 °F 94% 30.15 in 1.8 mi North 8.1 mph - 0.04 in Rain Rain
4:35 PM 50.0 °F - 48.2 °F 94% 30.16 in 5.0 mi North 10.4 mph 16.1 mph 0.07 in   Light Drizzle
4:55 PM 48.2 °F - 48.2 °F 100% 30.17 in 10.0 mi NNE 8.1 mph - 0.07 in   Overcast
5:15 PM 48.2 °F - 48.2 °F 100% 30.19 in 10.0 mi North 6.9 mph - N/A   Overcast
5:35 PM 48.2 °F - 48.2 °F 100% 30.19 in 4.0 mi North 8.1 mph - N/A Rain Light Rain
5:55 PM 48.2 °F - 48.2 °F 100% 30.19 in 4.0 mi North 6.9 mph - 0.03 in   Light Drizzle
6:15 PM 48.2 °F - 48.2 °F 100% 30.18 in 10.0 mi NNE 6.9 mph - N/A   Overcast
6:35 PM 48.2 °F - 48.2 °F 100% 30.16 in 7.0 mi NNE 6.9 mph - N/A   Overcast
6:55 PM 48.2 °F - 48.2 °F 100% 30.16 in 10.0 mi NNE 8.1 mph - N/A   Overcast
7:15 PM 48.2 °F - 48.2 °F 100% 30.17 in 10.0 mi NNE 5.8 mph - N/A Rain Light Rain
7:35 PM 48.2 °F - 46.4 °F 93% 30.17 in 10.0 mi NNE 6.9 mph - N/A   Overcast
7:55 PM 48.2 °F - 46.4 °F 93% 30.17 in 10.0 mi NE 6.9 mph - N/A   Overcast
8:15 PM 48.2 °F - 46.4 °F 93% 30.17 in 10.0 mi NNE 5.8 mph - N/A Rain Light Rain
8:35 PM 48.2 °F - 46.4 °F 93% 30.19 in 4.0 mi North 5.8 mph - 0.01 in Rain Rain
8:55 PM 46.4 °F 43.5 °F 46.4 °F 100% 30.21 in 1.5 mi North 5.8 mph - 0.12 in Rain Heavy Rain
9:15 PM 46.4 °F 42.4 °F 46.4 °F 100% 30.19 in 2.0 mi North 8.1 mph - 0.04 in Rain Rain
9:35 PM 46.4 °F 41.5 °F 46.4 °F 100% 30.15 in 3.0 mi NNE 10.4 mph 20.7 mph 0.06 in Rain Light Rain
9:55 PM 46.4 °F 42.9 °F 44.6 °F 93% 30.17 in 10.0 mi NNE 6.9 mph 16.1 mph 0.06 in   Mostly Cloudy
10:15 PM 46.4 °F 43.5 °F 44.6 °F 93% 30.19 in 9.0 mi NNE 5.8 mph - N/A Rain Light Rain
10:35 PM 46.4 °F 42.9 °F 44.6 °F 93% 30.17 in 6.0 mi NNE 6.9 mph - N/A   Light Drizzle
10:55 PM 46.4 °F 44.3 °F 44.6 °F 93% 30.17 in 7.0 mi ENE 4.6 mph - N/A Rain Light Rain
11:15 PM 46.4 °F 43.5 °F 46.4 °F 100% 30.16 in 3.0 mi ENE 5.8 mph - 0.03 in Rain Light Rain
11:35 PM 46.4 °F 44.3 °F 44.6 °F 93% 30.15 in 8.0 mi NE 4.6 mph - 0.05 in   Overcast
11:55 PM 46.4 °F 42.9 °F 46.4 °F 100% 30.17 in 4.0 mi North 6.9 mph - 0.07 in Rain Light Rain